Location: Oshawa
(43.9000°N, 78.8670°W)
Time: 16:25:10
(UTC-05:00)

ITAMSAT 1 - Visible Passes

Search period start: 13 February 2016 00:00
Search period end: 23 February 2016 00:00
Orbit: 785 x 797 km, 98.7° (Epoch: 12 February)

Date Brightness Start Highest point End Pass type
(mag) Time Alt. Az. Time Alt. Az. Time Alt. Az.
19 Feb 10.4 03:46:51 10° N 03:46:51 10° N 03:46:51 10° N visible
21 Feb 10.1 04:28:28 10° NNW 04:28:31 10° NNW 04:28:31 10° NNW visible
22 Feb 10.1 03:58:35 10° N 03:58:59 12° N 03:58:59 12° N visible
